SCP
0 0 0 0 0 0 0 0 0 0 0 0 0 0 0 0 0 0 0 0 -0 -1 -1 -1 -1 -1 -1 -1 -1 -1 -1 -1 -1 -1 -0 -0 -0 -0 -0 -0 -0 -0 -0 -0 -0 -0 -0 0 0
0 0 0 0 0 0 0 0 0 0 0 0 0 0 0 0 0 0 0 0 -0 -0 -1 -1 -1 -1 -1 -1 -1 -1 -1 -1 -1 -1 -0 -0 -0 -0 -0 -0 -0 -0 0 -0 -0 -0 -0 0 0
0 0 0 0 0 0 0 0 0 0 0 0 0 0 0 1 0 0 0 0 -0 -0 -0 -0 -1 -1 -1 -1 -0 -0 -1 -1 -1 -1 -0 -0 -0 -0 -0 -0 -0 -0 0 -0 -0 -0 0 0 0
0 0 0 0 0 0 0 0 0 0 0 0 0 0 0 1 0 1 0 0 0 0 0 -0 -0 -0 -0 -1 -1 -0 -0 -0 -0 -0 -0 -0 -0 -0 -0 -0 -0 -0 -0 -0 -0 -0 0 0 -0
0 0 0 0 0 0 0 0 0 0 0 0 0 0 0 1 1 0 0 0 0 0 0 0 0 0 0 -1 -1 -0 -0 -0 -0 -0 -0 -0 -0 -0 -0 -0 -0 -0 -0 -0 -0 0 0 -0 -0
0 0 0 0 0 0 0 0 0 0 0 0 0 0 0 1 0 0 1 0 0 0 0 -0 -0 -0 0 0 0 0 -0 -0 -0 -0 -0 -0 -0 -0 -0 0 0 -0 -0 0 0 0 0 0 -0
0 0 0 0 0 0 0 0 0 0 0 0 0 0 0 0 1 0 1 1 0 0 0 0 0 0 0 0 0 0 -0 -0 -0 -0 -0 -0 -0 -0 -0 0 0 0 0 0 0 0 0 0 0
0 0 0 0 0 0 0 0 0 0 0 0 0 0 0 1 1 1 1 1 1 1 1 1 1 0 0 0 0 0 0 -0 0 0 0 0 0 0 0 0 0 0 0 0 0 0 0 0 0
0 0 0 0 0 0 0 0 0 0 0 0 0 0 0 -0 1 1 2 1 1 1 1 1 1 1 0 0 0 0 0 -0 0 0 0 0 0 0 0 0 0 0 0 0 0 0 0 0 0
0 0 0 0 0 0 0 0 0 0 0 0 0 0 0 -1 1 1 1 1 1 1 1 1 1 1 0 0 1 0 0 0 0 0 0 0 0 0 0 0 0 0 0 0 0 0 0 0 0
0 0 0 0 0 0 0 0 0 0 0 0 0 0 0 0 0 2 1 1 1 1 1 1 1 1 0 0 1 1 0 0 1 0 0 0 0 0 0 0 0 0 0 0 0 0 0 0 0
0 0 0 0 0 0 0 0 0 0 0 0 0 0 0 0 0 2 2 1 1 1 1 1 1 1 1 1 1 1 1 1 1 1 1 0 0 0 0 0 0 1 0 0 0 0 0 0 0
0 0 0 0 0 0 0 0 0 0 0 0 0 0 0 0 1 1 1 1 1 1 1 1 1 0 1 1 1 1 1 1 1 1 1 0 0 0 0 0 0 0 0 0 0 0 0 0 0
0 0 0 0 0 0 0 0 0 0 0 0 0 0 0 0 2 2 2 1 1 1 1 1 1 1 1 1 1 1 1 1 1 1 1 1 1 1 0 0 0 0 0 0 0 0 1 1 1
0 0 0 0 0 0 0 -0 0 0 0 0 0 0 0 0 2 2 1 1 1 1 1 1 1 1 1 1 1 1 1 1 1 1 1 1 1 1 1 0 0 0 0 1 1 1 1 1 0
0 0 0 0 0 0 0 -0 0 -0 0 0 0 0 0 0 1 1 1 1 1 2 1 1 1 1 1 1 1 1 1 1 1 1 1 1 1 1 1 1 0 1 0 0 0 0 0 0 0
0 0 0 0 0 0 0 0 0 0 0 0 0 0 0 0 0 0 0 1 1 1 1 1 1 1 1 1 1 1 1 1 1 1 2 2 1 1 1 1 0 0 0 1 0 0 0 0 0
0 0 0 0 0 0 0 0 0 0 0 0 0 0 0 0 0 0 0 0 1 1 1 2 1 1 1 1 1 1 1 1 1 1 1 1 2 1 1 1 1 1 1 0 0 0 0 0 0
0 0 0 0 0 0 0 0 0 0 0 0 0 0 0 0 0 0 0 0 0 1 0 1 1 1 1 1 1 1 1 1 1 1 1 1 2 1 1 1 1 1 0 0 0 0 0 0 0
0 0 0 0 0 0 0 0 0 0 0 0 0 0 0 0 0 0 0 0 0 0 1 1 1 1 1 1 1 1 1 1 1 1 1 1 1 1 0 1 0 0 0 0 0 0 0 0 0
0 0 0 0 0 0 0 0 0 0 0 0 0 0 0 0 0 0 0 0 0 0 0 0 0 0 1 1 1 1 1 1 1 1 1 0 0 0 0 0 0 0 0 0 0 0 0 0 0
0 0 0 0 0 0 0 0 0 0 0 0 0 0 0 0 0 0 0 0 1 0 1 0 0 0 1 1 1 1 1 1 1 1 0 0 0 0 0 0 0 0 0 0 0 0 0 0 0
0 0 0 0 0 0 0 0 0 0 0 0 0 0 0 0 0 0 0 0 0 1 1 1 0 0 0 1 1 1 1 1 0 0 0 0 0 0 0 0 0 0 0 0 0 0 0 0 0
0 0 0 0 0 0 0 0 0 0 0 0 0 0 0 0 0 0 0 0 1 1 1 1 0 0 0 1 1 1 1 1 1 1 0 0 0 0 0 0 0 0 0 0 0 0 0 0 0
0 0 0 0 0 0 0 0 0 0 0 0 0 0 0 0 0 0 0 0 1 1 1 0 0 0 0 1 1 1 1 1 1 1 0 0 0 0 0 0 0 0 0 0 0 0 0 0 0
0 0 0 0 0 0 0 0 0 0 0 0 0 0 0 0 0 0 0 0 0 0 1 1 0 0 1 1 0 0 0 0 0 0 0 0 0 0 0 0 0 0 0 0 0 0 0 0 0
0 0 0 0 0 0 0 0 0 0 0 0 0 0 0 0 0 0 0 0 0 0 0 0 0 0 0 0 0 0 0 0 0 0 0 0 0 0 0 0 0 0 0 0 0 0 0 0 0
0 0 0 0 0 0 0 0 0 0 0 0 0 0 0 0 0 0 0 0 0 0 0 0 0 0 0 0 0 0 0 0 0 0 0 0 0 0 0 0 0 0 0 0 0 0 0 0 0
0 0 0 0 0 0 0 0 0 0 0 0 0 0 0 0 0 0 0 0 0 0 0 0 0 0 0 0 0 0 0 -0 0 0 0 0 0 0 0 0 0 0 0 0 0 0 0 0 0
0 0 0 0 0 0 0 0 0 0 0 0 0 0 0 0 0 0 0 0 0 0 0 0 0 0 0 0 0 0 0 0 0 0 0 0 0 0 0 0 0 0 0 0 0 0 0 0 0
Wind_Speed_500mb
24 22 12 5 8 5 14 11 4 6 7 1 14 10 13 7 7 6 6 38 41 60 59 55 55 50 45 39 33 30 30 31 29 27 24 23 24 27 32 30 28 26 26 25 24 22 22 21 22
22 19 11 6 11 19 23 13 16 18 2 25 17 10 5 2 5 7 15 37 54 61 61 58 57 52 47 40 34 31 29 27 26 26 25 25 28 31 33 29 26 25 25 24 24 25 25 25 25
19 20 11 8 11 34 28 14 16 14 10 9 9 8 9 5 8 5 13 36 58 63 60 60 60 54 48 42 38 32 28 25 25 27 28 30 32 34 32 28 24 24 25 24 24 24 27 27 28
17 10 4 13 34 36 41 8 7 6 3 5 12 13 16 11 9 11 22 43 57 62 61 62 61 58 53 47 42 34 27 23 24 28 31 32 35 36 32 27 26 26 27 25 24 25 27 30 29
21 7 9 13 35 20 13 27 14 14 5 6 16 18 14 18 13 14 34 46 54 63 64 63 59 56 53 51 46 38 30 25 24 27 30 33 36 36 32 28 27 28 28 26 26 25 26 29 26
9 3 9 31 39 31 27 22 18 25 16 7 10 13 14 16 14 16 44 49 57 62 65 64 62 58 53 49 46 42 35 28 24 25 28 30 33 33 29 27 26 28 28 26 24 24 26 23 20
13 8 19 18 22 29 21 20 30 33 36 28 12 10 12 14 16 18 47 47 61 64 63 66 64 60 55 51 47 42 37 33 29 26 26 27 29 30 28 27 26 26 26 25 25 23 23 22 19
14 8 14 18 29 28 6 20 17 26 27 17 14 11 5 16 12 24 43 44 59 65 63 66 65 63 60 56 50 44 41 37 32 28 28 30 30 30 31 31 29 27 26 26 24 25 25 24 25
19 15 28 31 30 17 2 8 18 17 18 12 10 10 13 29 18 27 50 44 60 63 66 68 68 65 62 56 51 47 43 39 36 32 29 29 32 34 33 32 31 29 27 26 29 32 33 32 32
23 21 31 15 30 15 18 30 15 12 15 12 12 9 23 16 26 34 53 57 67 66 67 69 69 66 62 58 56 52 49 47 44 41 37 32 30 29 30 30 31 31 30 29 31 33 34 34 31
24 35 28 25 39 29 33 37 24 19 27 30 21 20 15 19 26 37 46 55 65 64 66 69 68 65 63 61 59 57 54 52 50 45 40 34 32 31 31 32 33 34 36 36 35 34 33 33 31
25 37 36 28 26 27 31 33 29 32 42 19 21 25 18 15 27 41 43 51 64 66 63 66 68 66 63 62 59 55 57 56 53 49 44 41 38 35 33 33 35 38 43 44 42 39 36 32 29
41 25 40 54 34 46 44 36 27 17 22 29 29 34 34 26 27 39 45 53 60 61 60 64 65 65 64 61 60 60 59 55 51 49 49 46 42 38 36 36 37 38 41 44 42 39 36 35 34
14 48 41 31 51 54 48 47 39 24 22 31 31 36 30 32 32 38 53 57 61 62 61 60 60 62 62 62 61 59 54 51 52 54 53 48 44 40 38 37 35 37 41 41 40 37 34 32 34
32 15 21 41 48 30 19 43 43 52 49 48 39 39 34 28 37 46 47 53 54 51 51 54 53 58 62 62 57 58 53 53 55 56 52 50 48 43 40 37 35 39 38 35 35 34 32 32 30
31 29 35 27 22 26 25 41 12 42 48 51 49 46 44 33 42 43 47 47 43 47 50 49 48 54 56 56 54 54 53 55 58 58 54 52 45 42 39 39 41 40 36 30 32 33 30 29 31
26 27 40 23 29 21 38 26 33 49 33 34 35 39 40 40 43 48 45 45 45 46 47 43 45 50 53 54 55 54 54 56 58 56 52 45 39 39 39 41 40 37 36 31 30 25 29 34 39
30 35 19 32 28 45 45 37 17 6 43 50 46 41 37 41 50 47 42 39 41 45 50 50 53 54 53 54 56 56 56 57 55 46 41 35 28 27 37 41 38 35 33 32 33 31 35 40 42
31 32 39 25 16 32 45 42 38 36 25 28 33 37 36 41 47 54 52 50 49 49 53 57 56 54 54 56 58 59 57 55 44 35 33 37 36 39 38 33 31 33 32 34 35 43 41 40 41
36 19 23 24 35 27 28 45 40 42 36 41 43 43 39 40 47 47 48 52 56 56 57 57 56 58 57 58 59 59 54 45 39 36 36 33 33 31 25 28 27 30 34 33 33 37 35 28 33
47 44 18 10 23 26 12 30 23 29 36 36 39 39 42 43 50 51 55 57 56 64 64 63 65 63 60 58 58 52 49 45 44 36 37 33 30 34 33 31 22 24 36 41 34 31 27 28 30
52 47 31 19 18 19 20 9 21 34 29 31 39 39 42 47 54 56 57 61 65 63 70 73 70 64 61 59 54 45 45 36 32 27 25 29 31 27 29 34 31 29 39 30 28 26 26 28 26
44 38 42 29 17 10 19 12 16 11 28 34 30 42 48 55 59 60 57 57 59 62 72 72 71 65 62 57 44 39 32 28 18 19 31 32 28 26 29 28 29 34 29 26 25 25 27 28 26
21 40 40 32 22 24 39 24 13 20 29 24 21 21 36 44 49 52 48 48 53 58 66 68 68 62 57 42 39 32 25 19 11 11 11 23 25 29 27 25 25 27 28 23 22 24 27 30 32
40 42 19 23 19 17 26 24 19 15 3 10 9 7 7 25 37 41 39 36 41 50 54 53 50 40 27 26 27 23 19 16 14 12 11 16 22 26 27 25 24 25 26 24 24 25 27 29 33
57 47 24 37 31 30 13 23 8 11 5 3 9 10 22 33 35 36 36 36 35 38 47 45 35 25 21 21 24 23 18 19 19 21 18 18 22 25 25 23 22 23 23 24 26 29 32 36 41
56 45 26 19 20 19 16 8 8 11 10 12 18 24 30 38 42 45 43 45 45 44 45 41 32 28 29 31 30 25 16 13 15 16 18 20 20 20 21 21 21 22 24 28 31 35 40 45 53
55 52 24 14 24 22 24 15 11 18 16 16 19 26 34 43 51 50 49 48 50 49 49 43 37 35 39 34 29 21 13 6 7 11 15 18 20 20 19 21 23 27 31 35 39 44 50 54 56
35 42 36 6 4 13 17 17 3 17 18 23 23 32 41 51 56 59 60 58 61 60 60 61 58 53 43 33 25 26 20 17 6 7 9 12 17 20 23 26 30 33 37 41 45 49 53 56 59
33 46 42 23 15 3 4 9 5 18 20 25 33 39 46 54 61 72 77 78 71 70 66 59 49 40 34 30 24 15 29 15 14 14 15 17 19 24 28 32 36 39 42 47 52 54 57 61 65
Wind_Direction_500mb
239 247 229 191 227 251 242 223 282 193 196 332 298 263 281 282 268 355 292 170 176 175 173 173 171 171 171 167 165 165 165 166 170 174 173 168 160 155 154 152 150 150 153 156 159 161 160 156 145
223 213 183 141 226 226 236 222 211 230 150 320 318 316 240 20 266 292 142 166 166 174 173 173 171 173 170 169 172 169 166 167 170 174 174 169 161 158 157 153 151 154 157 158 158 156 153 150 146
209 181 172 195 220 230 241 218 239 268 280 295 328 326 325 304 301 234 167 165 168 176 174 174 172 173 171 174 172 171 169 167 168 171 170 168 164 162 159 155 152 154 155 154 153 151 150 147 146
172 153 95 225 222 241 236 196 213 167 102 146 357 303 315 295 295 230 179 167 169 175 175 175 175 176 176 177 174 172 168 165 166 168 169 170 170 167 164 160 156 155 155 156 154 151 151 150 151
167 154 208 226 233 247 229 228 206 257 240 249 338 308 286 291 266 203 178 170 172 175 177 178 178 179 179 179 176 174 172 168 167 169 172 174 175 173 169 166 161 160 161 160 157 154 155 156 160
151 150 213 230 238 226 246 237 242 246 259 253 283 280 280 268 259 220 179 173 179 179 180 180 180 182 183 183 181 178 174 172 168 171 176 177 179 178 174 172 168 167 168 168 164 165 169 173 176
196 192 230 246 252 254 228 220 227 244 255 259 233 241 264 275 248 213 189 180 181 184 184 182 183 184 186 187 188 185 182 182 178 173 175 179 181 185 185 182 178 174 176 178 179 181 187 192 202
185 209 221 227 240 256 219 223 238 229 258 176 196 222 239 338 265 212 191 178 179 185 188 186 186 186 188 189 190 192 191 190 187 183 178 180 182 187 191 190 189 186 186 188 193 197 203 207 212
177 220 228 226 222 227 233 198 226 236 234 208 225 259 305 304 247 207 184 184 182 185 190 191 190 190 191 191 191 194 197 197 195 192 188 185 188 192 198 202 201 199 199 198 201 204 210 215 221
199 225 225 223 226 226 240 245 220 225 199 216 229 269 326 319 229 213 193 188 187 188 191 193 194 194 193 194 195 198 200 202 201 200 196 195 196 198 202 207 210 211 212 213 214 216 217 222 229
207 230 229 226 230 236 246 247 230 245 248 246 246 277 322 316 213 204 198 196 188 190 195 197 199 198 197 199 201 203 205 208 206 206 205 204 203 202 204 207 208 212 216 222 226 226 229 230 232
232 230 228 228 222 233 239 246 237 236 245 254 242 275 297 267 216 202 195 192 190 196 200 203 203 203 202 207 209 211 213 213 211 209 210 211 210 212 213 215 217 217 219 222 225 229 231 237 241
228 231 218 233 230 235 249 243 254 234 243 245 250 262 276 257 223 201 199 198 196 201 203 206 207 206 208 211 215 216 218 218 217 216 216 216 217 220 220 223 226 229 231 231 232 233 236 240 244
212 223 234 231 236 242 251 254 239 240 237 244 252 259 266 244 216 200 197 200 201 204 206 207 210 209 211 216 220 224 224 223 220 219 219 219 222 223 226 229 234 237 237 236 235 236 240 246 247
225 221 227 235 231 242 254 258 244 239 239 252 254 270 263 252 214 211 210 208 209 210 212 210 211 211 216 219 223 227 228 224 222 222 222 222 222 223 228 232 239 242 239 238 240 239 239 242 246
211 233 234 209 204 231 215 249 2 202 209 226 236 245 251 246 227 221 221 221 222 217 212 213 214 215 220 221 226 230 229 226 226 223 224 224 226 229 232 236 241 242 239 242 245 247 247 253 256
208 226 223 235 215 207 204 256 247 237 204 220 226 230 232 232 230 222 224 223 224 223 210 218 217 217 223 225 228 229 228 228 229 227 227 228 233 238 239 239 242 246 246 250 248 247 261 268 278
205 223 209 207 196 213 220 229 253 200 219 219 223 234 236 230 226 224 219 218 220 221 218 217 214 217 222 225 226 227 227 227 229 230 232 235 236 226 236 239 241 246 245 250 249 261 266 282 282
221 209 224 206 204 207 231 235 233 238 226 234 234 235 231 230 221 225 223 222 220 218 213 210 213 217 221 223 222 224 225 226 225 227 248 245 245 243 230 229 233 244 242 248 255 271 269 269 276
224 192 217 223 220 218 233 240 230 245 236 235 230 232 230 224 225 218 217 220 220 216 214 214 213 218 222 224 223 223 224 228 238 267 259 250 248 235 226 229 224 225 238 244 270 268 254 256 273
223 217 204 194 192 214 235 243 225 239 222 223 220 225 230 224 221 221 222 217 217 217 212 210 213 217 223 226 226 227 231 238 245 251 265 254 238 245 230 214 228 238 255 270 256 244 245 259 266
215 212 208 200 211 202 205 247 217 226 214 209 208 213 223 222 226 227 218 214 217 211 211 213 215 218 224 227 226 234 247 246 248 262 245 253 243 239 222 215 228 252 260 254 240 242 249 252 262
221 185 199 219 229 235 197 241 243 220 230 216 210 211 218 224 221 221 218 218 213 213 213 215 217 220 225 229 226 233 238 241 236 242 256 242 245 232 218 219 225 234 243 240 246 257 252 261 257
193 179 190 201 218 233 228 223 218 208 228 217 209 232 234 227 215 216 214 208 208 211 213 217 219 223 227 227 223 222 219 223 232 238 241 222 223 221 225 232 240 243 246 255 254 255 251 254 260
203 168 161 188 196 214 216 210 220 202 241 289 297 287 176 182 191 193 191 185 193 205 207 207 210 214 212 205 204 193 197 211 226 246 234 227 228 233 230 231 241 244 244 244 244 250 258 266 271
193 181 175 173 186 192 156 212 208 229 355 336 62 88 115 126 138 148 154 162 169 180 190 190 190 188 181 183 178 174 201 220 243 247 244 239 232 230 233 231 229 233 236 246 259 265 269 274 278
191 198 189 148 177 170 172 149 151 144 122 90 87 101 97 100 111 122 138 148 157 162 169 174 167 157 148 145 153 173 185 211 219 226 229 228 225 222 222 225 228 236 249 259 265 270 274 278 281
183 190 194 194 168 176 185 188 137 162 142 114 101 105 91 94 107 120 127 136 138 139 136 136 138 135 119 106 90 73 56 81 143 190 200 202 209 215 220 234 248 260 268 273 277 280 282 282 283
184 190 211 150 232 176 155 188 63 153 140 126 112 88 88 102 112 121 126 130 127 126 124 121 115 106 92 79 74 48 35 14 339 235 229 217 225 237 249 259 266 270 274 277 279 281 283 285 286
178 199 190 192 159 97 193 109 340 140 131 117 97 93 99 105 110 116 118 119 118 120 119 116 116 108 99 92 88 18 332 287 242 247 250 256 263 267 270 272 275 279 284 286 288 289 291 292 292
Wind_Speed_850mb
24 22 12 5 8 5 14 11 4 6 7 1 14 10 13 7 7 6 6 38 41 60 59 55 55 50 45 39 33 30 30 31 29 27 24 23 24 27 32 30 28 26 26 25 24 22 22 21 22
22 19 11 6 11 19 23 13 16 18 2 25 17 10 5 2 5 7 15 37 54 61 61 58 57 52 47 40 34 31 29 27 26 26 25 25 28 31 33 29 26 25 25 24 24 25 25 25 25
19 20 11 8 11 34 28 14 16 14 10 9 9 8 9 5 8 5 13 36 58 63 60 60 60 54 48 42 38 32 28 25 25 27 28 30 32 34 32 28 24 24 25 24 24 24 27 27 28
17 10 4 13 34 36 41 8 7 6 3 5 12 13 16 11 9 11 22 43 57 62 61 62 61 58 53 47 42 34 27 23 24 28 31 32 35 36 32 27 26 26 27 25 24 25 27 30 29
21 7 9 13 35 20 13 27 14 14 5 6 16 18 14 18 13 14 34 46 54 63 64 63 59 56 53 51 46 38 30 25 24 27 30 33 36 36 32 28 27 28 28 26 26 25 26 29 26
9 3 9 31 39 31 27 22 18 25 16 7 10 13 14 16 14 16 44 49 57 62 65 64 62 58 53 49 46 42 35 28 24 25 28 30 33 33 29 27 26 28 28 26 24 24 26 23 20
13 8 19 18 22 29 21 20 30 33 36 28 12 10 12 14 16 18 47 47 61 64 63 66 64 60 55 51 47 42 37 33 29 26 26 27 29 30 28 27 26 26 26 25 25 23 23 22 19
14 8 14 18 29 28 6 20 17 26 27 17 14 11 5 16 12 24 43 44 59 65 63 66 65 63 60 56 50 44 41 37 32 28 28 30 30 30 31 31 29 27 26 26 24 25 25 24 25
19 15 28 31 30 17 2 8 18 17 18 12 10 10 13 29 18 27 50 44 60 63 66 68 68 65 62 56 51 47 43 39 36 32 29 29 32 34 33 32 31 29 27 26 29 32 33 32 32
23 21 31 15 30 15 18 30 15 12 15 12 12 9 23 16 26 34 53 57 67 66 67 69 69 66 62 58 56 52 49 47 44 41 37 32 30 29 30 30 31 31 30 29 31 33 34 34 31
24 35 28 25 39 29 33 37 24 19 27 30 21 20 15 19 26 37 46 55 65 64 66 69 68 65 63 61 59 57 54 52 50 45 40 34 32 31 31 32 33 34 36 36 35 34 33 33 31
25 37 36 28 26 27 31 33 29 32 42 19 21 25 18 15 27 41 43 51 64 66 63 66 68 66 63 62 59 55 57 56 53 49 44 41 38 35 33 33 35 38 43 44 42 39 36 32 29
41 25 40 54 34 46 44 36 27 17 22 29 29 34 34 26 27 39 45 53 60 61 60 64 65 65 64 61 60 60 59 55 51 49 49 46 42 38 36 36 37 38 41 44 42 39 36 35 34
14 48 41 31 51 54 48 47 39 24 22 31 31 36 30 32 32 38 53 57 61 62 61 60 60 62 62 62 61 59 54 51 52 54 53 48 44 40 38 37 35 37 41 41 40 37 34 32 34
32 15 21 41 48 30 19 43 43 52 49 48 39 39 34 28 37 46 47 53 54 51 51 54 53 58 62 62 57 58 53 53 55 56 52 50 48 43 40 37 35 39 38 35 35 34 32 32 30
31 29 35 27 22 26 25 41 12 42 48 51 49 46 44 33 42 43 47 47 43 47 50 49 48 54 56 56 54 54 53 55 58 58 54 52 45 42 39 39 41 40 36 30 32 33 30 29 31
26 27 40 23 29 21 38 26 33 49 33 34 35 39 40 40 43 48 45 45 45 46 47 43 45 50 53 54 55 54 54 56 58 56 52 45 39 39 39 41 40 37 36 31 30 25 29 34 39
30 35 19 32 28 45 45 37 17 6 43 50 46 41 37 41 50 47 42 39 41 45 50 50 53 54 53 54 56 56 56 57 55 46 41 35 28 27 37 41 38 35 33 32 33 31 35 40 42
31 32 39 25 16 32 45 42 38 36 25 28 33 37 36 41 47 54 52 50 49 49 53 57 56 54 54 56 58 59 57 55 44 35 33 37 36 39 38 33 31 33 32 34 35 43 41 40 41
36 19 23 24 35 27 28 45 40 42 36 41 43 43 39 40 47 47 48 52 56 56 57 57 56 58 57 58 59 59 54 45 39 36 36 33 33 31 25 28 27 30 34 33 33 37 35 28 33
47 44 18 10 23 26 12 30 23 29 36 36 39 39 42 43 50 51 55 57 56 64 64 63 65 63 60 58 58 52 49 45 44 36 37 33 30 34 33 31 22 24 36 41 34 31 27 28 30
52 47 31 19 18 19 20 9 21 34 29 31 39 39 42 47 54 56 57 61 65 63 70 73 70 64 61 59 54 45 45 36 32 27 25 29 31 27 29 34 31 29 39 30 28 26 26 28 26
44 38 42 29 17 10 19 12 16 11 28 34 30 42 48 55 59 60 57 57 59 62 72 72 71 65 62 57 44 39 32 28 18 19 31 32 28 26 29 28 29 34 29 26 25 25 27 28 26
21 40 40 32 22 24 39 24 13 20 29 24 21 21 36 44 49 52 48 48 53 58 66 68 68 62 57 42 39 32 25 19 11 11 11 23 25 29 27 25 25 27 28 23 22 24 27 30 32
40 42 19 23 19 17 26 24 19 15 3 10 9 7 7 25 37 41 39 36 41 50 54 53 50 40 27 26 27 23 19 16 14 12 11 16 22 26 27 25 24 25 26 24 24 25 27 29 33
57 47 24 37 31 30 13 23 8 11 5 3 9 10 22 33 35 36 36 36 35 38 47 45 35 25 21 21 24 23 18 19 19 21 18 18 22 25 25 23 22 23 23 24 26 29 32 36 41
56 45 26 19 20 19 16 8 8 11 10 12 18 24 30 38 42 45 43 45 45 44 45 41 32 28 29 31 30 25 16 13 15 16 18 20 20 20 21 21 21 22 24 28 31 35 40 45 53
55 52 24 14 24 22 24 15 11 18 16 16 19 26 34 43 51 50 49 48 50 49 49 43 37 35 39 34 29 21 13 6 7 11 15 18 20 20 19 21 23 27 31 35 39 44 50 54 56
35 42 36 6 4 13 17 17 3 17 18 23 23 32 41 51 56 59 60 58 61 60 60 61 58 53 43 33 25 26 20 17 6 7 9 12 17 20 23 26 30 33 37 41 45 49 53 56 59
33 46 42 23 15 3 4 9 5 18 20 25 33 39 46 54 61 72 77 78 71 70 66 59 49 40 34 30 24 15 29 15 14 14 15 17 19 24 28 32 36 39 42 47 52 54 57 61 65
Wind_Direction_850mb
239 247 229 191 227 251 242 223 282 193 196 332 298 263 281 282 268 355 292 170 176 175 173 173 171 171 171 167 165 165 165 166 170 174 173 168 160 155 154 152 150 150 153 156 159 161 160 156 145
223 213 183 141 226 226 236 222 211 230 150 320 318 316 240 20 266 292 142 166 166 174 173 173 171 173 170 169 172 169 166 167 170 174 174 169 161 158 157 153 151 154 157 158 158 156 153 150 146
209 181 172 195 220 230 241 218 239 268 280 295 328 326 325 304 301 234 167 165 168 176 174 174 172 173 171 174 172 171 169 167 168 171 170 168 164 162 159 155 152 154 155 154 153 151 150 147 146
172 153 95 225 222 241 236 196 213 167 102 146 357 303 315 295 295 230 179 167 169 175 175 175 175 176 176 177 174 172 168 165 166 168 169 170 170 167 164 160 156 155 155 156 154 151 151 150 151
167 154 208 226 233 247 229 228 206 257 240 249 338 308 286 291 266 203 178 170 172 175 177 178 178 179 179 179 176 174 172 168 167 169 172 174 175 173 169 166 161 160 161 160 157 154 155 156 160
151 150 213 230 238 226 246 237 242 246 259 253 283 280 280 268 259 220 179 173 179 179 180 180 180 182 183 183 181 178 174 172 168 171 176 177 179 178 174 172 168 167 168 168 164 165 169 173 176
196 192 230 246 252 254 228 220 227 244 255 259 233 241 264 275 248 213 189 180 181 184 184 182 183 184 186 187 188 185 182 182 178 173 175 179 181 185 185 182 178 174 176 178 179 181 187 192 202
185 209 221 227 240 256 219 223 238 229 258 176 196 222 239 338 265 212 191 178 179 185 188 186 186 186 188 189 190 192 191 190 187 183 178 180 182 187 191 190 189 186 186 188 193 197 203 207 212
177 220 228 226 222 227 233 198 226 236 234 208 225 259 305 304 247 207 184 184 182 185 190 191 190 190 191 191 191 194 197 197 195 192 188 185 188 192 198 202 201 199 199 198 201 204 210 215 221
199 225 225 223 226 226 240 245 220 225 199 216 229 269 326 319 229 213 193 188 187 188 191 193 194 194 193 194 195 198 200 202 201 200 196 195 196 198 202 207 210 211 212 213 214 216 217 222 229
207 230 229 226 230 236 246 247 230 245 248 246 246 277 322 316 213 204 198 196 188 190 195 197 199 198 197 199 201 203 205 208 206 206 205 204 203 202 204 207 208 212 216 222 226 226 229 230 232
232 230 228 228 222 233 239 246 237 236 245 254 242 275 297 267 216 202 195 192 190 196 200 203 203 203 202 207 209 211 213 213 211 209 210 211 210 212 213 215 217 217 219 222 225 229 231 237 241
228 231 218 233 230 235 249 243 254 234 243 245 250 262 276 257 223 201 199 198 196 201 203 206 207 206 208 211 215 216 218 218 217 216 216 216 217 220 220 223 226 229 231 231 232 233 236 240 244
212 223 234 231 236 242 251 254 239 240 237 244 252 259 266 244 216 200 197 200 201 204 206 207 210 209 211 216 220 224 224 223 220 219 219 219 222 223 226 229 234 237 237 236 235 236 240 246 247
225 221 227 235 231 242 254 258 244 239 239 252 254 270 263 252 214 211 210 208 209 210 212 210 211 211 216 219 223 227 228 224 222 222 222 222 222 223 228 232 239 242 239 238 240 239 239 242 246
211 233 234 209 204 231 215 249 2 202 209 226 236 245 251 246 227 221 221 221 222 217 212 213 214 215 220 221 226 230 229 226 226 223 224 224 226 229 232 236 241 242 239 242 245 247 247 253 256
208 226 223 235 215 207 204 256 247 237 204 220 226 230 232 232 230 222 224 223 224 223 210 218 217 217 223 225 228 229 228 228 229 227 227 228 233 238 239 239 242 246 246 250 248 247 261 268 278
205 223 209 207 196 213 220 229 253 200 219 219 223 234 236 230 226 224 219 218 220 221 218 217 214 217 222 225 226 227 227 227 229 230 232 235 236 226 236 239 241 246 245 250 249 261 266 282 282
221 209 224 206 204 207 231 235 233 238 226 234 234 235 231 230 221 225 223 222 220 218 213 210 213 217 221 223 222 224 225 226 225 227 248 245 245 243 230 229 233 244 242 248 255 271 269 269 276
224 192 217 223 220 218 233 240 230 245 236 235 230 232 230 224 225 218 217 220 220 216 214 214 213 218 222 224 223 223 224 228 238 267 259 250 248 235 226 229 224 225 238 244 270 268 254 256 273
223 217 204 194 192 214 235 243 225 239 222 223 220 225 230 224 221 221 222 217 217 217 212 210 213 217 223 226 226 227 231 238 245 251 265 254 238 245 230 214 228 238 255 270 256 244 245 259 266
215 212 208 200 211 202 205 247 217 226 214 209 208 213 223 222 226 227 218 214 217 211 211 213 215 218 224 227 226 234 247 246 248 262 245 253 243 239 222 215 228 252 260 254 240 242 249 252 262
221 185 199 219 229 235 197 241 243 220 230 216 210 211 218 224 221 221 218 218 213 213 213 215 217 220 225 229 226 233 238 241 236 242 256 242 245 232 218 219 225 234 243 240 246 257 252 261 257
193 179 190 201 218 233 228 223 218 208 228 217 209 232 234 227 215 216 214 208 208 211 213 217 219 223 227 227 223 222 219 223 232 238 241 222 223 221 225 232 240 243 246 255 254 255 251 254 260
203 168 161 188 196 214 216 210 220 202 241 289 297 287 176 182 191 193 191 185 193 205 207 207 210 214 212 205 204 193 197 211 226 246 234 227 228 233 230 231 241 244 244 244 244 250 258 266 271
193 181 175 173 186 192 156 212 208 229 355 336 62 88 115 126 138 148 154 162 169 180 190 190 190 188 181 183 178 174 201 220 243 247 244 239 232 230 233 231 229 233 236 246 259 265 269 274 278
191 198 189 148 177 170 172 149 151 144 122 90 87 101 97 100 111 122 138 148 157 162 169 174 167 157 148 145 153 173 185 211 219 226 229 228 225 222 222 225 228 236 249 259 265 270 274 278 281
183 190 194 194 168 176 185 188 137 162 142 114 101 105 91 94 107 120 127 136 138 139 136 136 138 135 119 106 90 73 56 81 143 190 200 202 209 215 220 234 248 260 268 273 277 280 282 282 283
184 190 211 150 232 176 155 188 63 153 140 126 112 88 88 102 112 121 126 130 127 126 124 121 115 106 92 79 74 48 35 14 339 235 229 217 225 237 249 259 266 270 274 277 279 281 283 285 286
178 199 190 192 159 97 193 109 340 140 131 117 97 93 99 105 110 116 118 119 118 120 119 116 116 108 99 92 88 18 332 287 242 247 250 256 263 267 270 272 275 279 284 286 288 289 291 292 292